{"data":{"norad_id":56414,"intl_designator":"2023-061AS","name":"STARLINK-5136","alt_names":[],"object_type":"PAYLOAD","status":"ACTIVE","operator":null,"country":"US","launch_date":"2023-05-04","launch_site_code":"AFETR","launch_vehicle":null,"mission":null,"orbit_class":"UNKNOWN","rcs_meters":null,"size_class":null,"mass_kg":null,"dimensions":null,"purposes":["comms"],"wikipedia_slug":null,"has_3d_model":false,"image_url":null,"decayed_at":null,"tle_current":{"epoch":"2026-09-19T22:50:51.465120Z","epoch_age_seconds":159586,"freshness":"FRESH","line1":"1 56414U 23061AS  26262.95198455 -.00001950  00000+0 -61407-4 0  9994","line2":"2 56414  43.0026 170.0135 0001361 255.8750 104.1951 15.27558794186589","mean_motion":15.27558794,"eccentricity":0.0001361,"inclination_deg":43.0026,"raan_deg":170.0135,"arg_perigee_deg":255.875,"mean_anomaly_deg":104.1951,"bstar":-6.1407e-5,"rev_number":18658,"period_min":94.26805735112,"perigee_km":482.17877909715,"apogee_km":484.04641123696,"semimajor_km":6861.2495951671,"source":"CELESTRAK","updated_at":"2026-09-21T09:00:33.437649Z"}}}